Content
SEND FEEDBACK

Daily
Averages
Monthly
Summary
United Kingdom

LONDON, ENGLAND


Home > Europe > United Kingdom > England
Elevation: 203 feet     Latitude: 51 09N     Longitude: 000 11W

WEATHER
 
SELECT A DAY
Number of Records: 296,286;   Date Range: 7/1/96 - 9/30/14
 
SHARE

PRINT THIS DATA

[ ← Previous Day ]
WEATHER ALMANAC - JULY 30, 2014
[ Next Day → ]
[ °C ]   °F
Weather ElementAverageHighLow
Temperature67.9 °F75.2 °F (2:20 pm)60.8 °F (1:50 am)
Dewpoint53.9 °F59 °F (12:20 am)50 °F (5:50 pm)
Humidity62.1 %83 % (12:20 am)47 % (12:50 pm)
Barometer30.01 in30.04 in (6:20 am)29.98 in (12:20 am)
Wind Speed6.9 mph10.4 mph (12:50 pm)
Weather ElementAverage
Visibility6.2 mi
Wind DirectionWSW (246.4 °)

Weather ElementTotal
Precipitation---
Cooling Degree Days3 (Base 65)
Growing Degree Days18 (Base 50)
Averaged from 47 records on July 30, 2014
WEATHER CONDITIONS BREAKOUT
WIND DIRECTION BREAKOUT
WEATHER BY HOUR - JULY 30, 2014
[ °C ]   °F
Local TimeTemperatureDewpointHumidityBarometerVisibilityWind DirectionWind SpeedGust SpeedPrecipitationEventsConditions
12:20 AM66.2 °F55.4 °F68 %30.01 inNorth (10°)6.9 mphClear
12:50 AM66.2 °F57.2 °F73 %30.01 inNorth (10°)6.9 mphClear
1:20 AM66.2 °F57.2 °F73 %29.98 inNorth (10°)8.1 mphClear
1:50 AM66.2 °F55.4 °F68 %29.98 in6.2 miNNW (330°)6.9 mphPartly Cloudy
2:20 AM66.2 °F53.6 °F64 %29.98 in6.2 miNNW (340°)9.2 mphPartly Cloudy
2:50 AM64.4 °F51.8 °F64 %30.01 inNNW (330°)10.4 mphClear
3:20 AM62.6 °F51.8 °F68 %30.01 inNNW (330°)6.9 mphClear
3:50 AM62.6 °F51.8 °F68 %30.01 inNNW (330°)6.9 mphClear
4:20 AM62.6 °F51.8 °F68 %30.01 inNW (320°)5.8 mphClear
5:20 AM60.8 °F50.0 °F68 %30.01 inNNW (340°)6.9 mphClear
5:50 AM60.8 °F51.8 °F72 %30.01 in6.2 miNW (320°)5.8 mphScattered Clouds
6:20 AM60.8 °F51.8 °F72 %30.01 in6.2 miNW (320°)8.1 mphPartly Cloudy
6:50 AM60.8 °F51.8 °F72 %30.01 inNW (310°)5.8 mphClear
7:20 AM60.8 °F51.8 °F72 %30.01 inNW (310°)5.8 mphClear
7:50 AM62.6 °F51.8 °F68 %30.01 inNNW (330°)8.1 mphClear
8:20 AM62.6 °F53.6 °F72 %30.01 inNW (320°)6.9 mphClear
8:50 AM64.4 °F53.6 °F68 %30.04 in6.2 miNNW (330°)8.1 mphPartly Cloudy
9:20 AM64.4 °F53.6 °F68 %30.04 in6.2 miNNW (340°)6.9 mphPartly Cloudy
9:50 AM66.2 °F51.8 °F60 %30.04 in6.2 miNW (310°)10.4 mphScattered Clouds
10:20 AM66.2 °F51.8 °F60 %30.04 in6.2 miWNW (300°)9.2 mphScattered Clouds
10:50 AM68.0 °F51.8 °F56 %30.04 in6.2 miNW (320°)9.2 mphPartly Cloudy
11:20 AM68.0 °F50.0 °F52 %30.04 in6.2 miNW (320°)10.4 mphScattered Clouds
11:50 AM68.0 °F51.8 °F56 %30.04 in6.2 miNW (310°)10.4 mphScattered Clouds
12:20 PM69.8 °F51.8 °F53 %30.01 in6.2 miNW (310°)8.1 mphPartly Cloudy
12:50 PM71.6 °F51.8 °F50 %30.01 inWNW (300°)10.4 mphClear
1:20 PM71.6 °F51.8 °F50 %30.01 inWNW (300°)8.1 mphClear
1:50 PM73.4 °F51.8 °F47 %30.01 inWNW (290°)9.2 mphClear
2:20 PM73.4 °F51.8 °F47 %30.01 inWest (260°)9.2 mphClear
2:50 PM73.4 °F51.8 °F47 %30.01 inWest (280°)6.9 mphClear
3:20 PM73.4 °F53.6 °F50 %30.01 inWest (270°)5.8 mphClear
3:50 PM75.2 °F53.6 °F47 %29.98 inVariable4.6 mphClear
4:20 PM75.2 °F53.6 °F47 %29.98 inWNW (300°)6.9 mphClear
4:50 PM75.2 °F53.6 °F47 %29.98 inNW (310°)6.9 mphClear
5:20 PM75.2 °F53.6 °F47 %29.98 inVariable5.8 mphClear
5:50 PM75.2 °F53.6 °F47 %29.98 in6.2 miVariable2.3 mphPartly Cloudy
6:20 PM75.2 °F53.6 °F47 %29.98 inWNW (290°)5.8 mphClear
6:50 PM75.2 °F53.6 °F47 %29.98 inWNW (290°)6.9 mphClear
7:20 PM75.2 °F53.6 °F47 %29.98 inVariable3.5 mphClear
7:50 PM71.6 °F59.0 °F64 %29.98 inSSW (200°)8.1 mphClear
8:20 PM69.8 °F59.0 °F68 %29.98 inSSW (200°)6.9 mphClear
8:50 PM69.8 °F59.0 °F68 %29.98 inSSW (200°)5.8 mphClear
9:20 PM68.0 °F59.0 °F73 %30.01 inSouth (180°)4.6 mphClear
9:50 PM68.0 °F59.0 °F73 %30.01 inSSW (200°)4.6 mphClear
10:20 PM66.2 °F59.0 °F78 %30.01 inSW (220°)4.6 mphClear
10:50 PM64.4 °F59.0 °F83 %30.01 inSW (220°)4.6 mphClear
11:20 PM64.4 °F59.0 °F83 %30.01 inSW (230°)2.3 mphClear
11:50 PM64.4 °F57.2 °F77 %30.01 inWSW (240°)4.6 mphClear
Hourly data recorded from EGKK, located miles away from London, England







STORIES FROM OUR PARTNERS